Regional Weather Roundup
Issued by NWS Kansas City/Pleasant Hill, MO

Home | Current Version | Previous Version | Graphics & Text | Print | Product List | Glossary Off
Versions: 1 2 3 4 5 6 7 8 9 10 11 12 13 14 15 16 17 18 19 20 21 22 23 24 25 26 27

000
ASUS43 KEAX 211010
RWREAX

WEATHER ROUNDUP FOR EASTERN KANSAS AND NORTHWEST MISSOURI
NATIONAL WEATHER SERVICE KANSAS CITY/PLEASANT HILL MO
500 AM CDT WED JUN 21 2017

KSZ040-057-103>105-MOZ028-029-037-043-211100-
...KANSAS CITY METROPOLITAN AREA...

CITY           SKY/WX    TMP DP  RH WIND       PRES   REMARKS
K.C. INTL      PTCLDY    73  66  78 SW10      29.90F
K.C. DOWNTOWN  PTCLDY    79  64  60 SW13      29.89S
LEES SUMMIT    CLEAR     74  66  76 SW12      29.92S
OLATHE - IXD   PTCLDY    73  64  73 S10       29.92F
OLATHE - OJC   PTCLDY    71  66  84 SW7       29.92F
LAWRENCE       PTCLDY    75  65  70 S6        29.90F

$$

MOZ001>008-011>017-020>025-030>033-038>040-044>046-053-054-211100-
...NORTHERN AND CENTRAL MISSOURI...

CITY           SKY/WX    TMP DP  RH WIND       PRES   REMARKS
ST. JOSEPH     CLEAR     73  68  84 S8        29.88S
WARRENSBURG    CLEAR     70  64  83 S6        29.92S
WHITEMAN AFB   PTCLDY    69  69 100 SW9       29.92S
CLINTON        NOT AVBL
SEDALIA        CLEAR     73  68  84 SW9       29.94S
WARSAW         NOT AVBL
CHILLICOTHE      N/A     69  68  96 CALM      29.91R
KIRKSVILLE     CLEAR     65  61  87 E6        29.93R

$$

MOZ041-047>049-056>058-063>065-088>090-097-211100-
...EASTERN AND SOUTHERN MISSOURI...

CITY           SKY/WX    TMP DP  RH WIND       PRES   REMARKS
ST. LOUIS INTL PTCLDY    77  63  61 W6        29.93R
SPIRIT OF STL  CLEAR     73  65  75 SW7       29.92R
COLUMBIA       CLEAR     71  66  84 SW8       29.93S
JEFFERSON CITY CLEAR     72  65  78 SE5       29.93S
ROLLA          CLEAR     67  63  87 SW6       29.95F
OSAGE BEACH    CLEAR     66  64  93 CALM      29.95F
SPRINGFIELD    CLEAR     67  64  90 S6        29.98R
JOPLIN         CLEAR     67  65  93 CALM      29.97R
WEST PLAINS    CLEAR     69  60  73 SW3       30.01R

$$

IAZ060-094-KSZ022-034>040-054-083-096-NEZ052-066-093-211100-
...KANSAS...SOUTHEAST NEBRASKA AND IOWA...

CITY           SKY/WX    TMP DP  RH WIND       PRES   REMARKS
TOPEKA         PTCLDY    76  66  71 S6        29.89F
MANHATTAN      CLEAR     75  63  66 SW7       29.88S
EMPORIA        CLOUDY    68  63  84 S6        29.93S
CHANUTE        CLEAR     67  64  90 S6        29.95R
WICHITA        CLEAR     70  64  81 S8        29.93R
OMAHA          PTCLDY    71  56  58 SE9       29.84F
LINCOLN        PTCLDY    71  64  78 S7        29.83S
FALLS CITY     CLEAR     74  65  73 S6        29.85S
LAMONI         CLEAR     67  57  70 E7        29.90F
DES MOINES     PTCLDY    67  59  75 SE9       29.90F

$$





USA.gov is the U.S. government's official web portal to all federal, state and local government web resources and services.